Location: Tyler Bend Campground
(35.9875°N, 92.7606°W)
Time: 00:29:05
(UTC-05:00)

CZ-2C R/B - Visible Passes

Search period start: 26 March 2017 00:00
Search period end: 05 April 2017 00:00
Orbit: 669 x 784 km, 98.1° (Epoch: 24 March)

Date Brightness Start Highest point End Pass type
(mag) Time Alt. Az. Time Alt. Az. Time Alt. Az.
27 Mar 5.7 05:57:43 10° ENE 06:00:15 14° E 06:02:45 10° ESE visible
29 Mar 5.6 05:59:54 10° ENE 06:02:39 14° E 06:05:23 10° SE visible
31 Mar 5.5 06:02:06 10° NE 06:05:04 15° E 06:07:59 10° SE visible
02 Apr 5.5 06:04:19 10° NE 06:07:28 16° E 06:10:34 10° SE visible
04 Apr 5.4 06:06:34 10° NE 06:09:53 17° E 06:13:07 10° SE visible
